Regional Weather Roundup
Issued by NWS

Home | Current Version | Previous Version | Graphics & Text | Print | Product List | Glossary On
Versions: 1 2 3 4 5 6 7 8 9 10 11 12 13 14 15 16 17 18 19 20 21 22 23 24 25 26 27 28 29 30 31 32 33 34 35 36 37 38 39 40 41 42 43 44 45 46 47 48 49 50
000
ASUS43 KMKX 282159
RWRWI

WISCONSIN REGIONAL WEATHER ROUNDUP
NATIONAL WEATHER SERVICE MILWAUKEE/SULLIVAN WI
500 PM CDT SAT MAR 28 2015

NOTE: "FAIR" INDICATES FEW OR NO CLOUDS BELOW 12,000 FEET WITH NO
SIGNIFICANT WEATHER AND/OR OBSTRUCTIONS TO VISIBILITY.

WIZ001-002-006>008-014>016-023>028-282300-
NORTHWEST WISCONSIN

CITY           SKY/WX    TMP DP  RH WIND       PRES   REMARKS
SUPERIOR ARPT  SUNNY     44   8  23 SW16G24   30.05F
ASHLAND        SUNNY     44   7  21 SW15      30.07F
HAYWARD        SUNNY     41   9  26 SW12      30.08F
SIREN          SUNNY     44   9  24 SW14G20   30.10F
CUMBERLAND     SUNNY     39  12  33 SW14      30.10F WCI  31
RICE LAKE      SUNNY     42   8  24 SW9G20    30.14F
CHETEK         SUNNY     42   7  24 S13       30.13F
LADYSMITH      SUNNY     42  10  28 S14       30.14F
EAU CLAIRE     NOT AVBL
MENOMONIE      SUNNY     42   8  25 S13G18    30.16F
NEW RICHMOND   SUNNY     40  12  31 SW18      30.14F WCI  31
OSCEOLA        SUNNY     42  14  31 S15G21    30.15F
$$

WIZ003>005-009-010-017-018-282300-
NORTH CENTRAL WISCONSIN

CITY           SKY/WX    TMP DP  RH WIND       PRES   REMARKS
MANITOWISH WTR SUNNY     40  10  29 SW9       30.08F WCI  33
ARBOR VITAE    SUNNY     39   9  28 SW12G20   30.10S WCI  32
WOODRUFF       SUNNY     39   9  28 SW12G20   30.10S WCI  32
RHINELANDER    SUNNY     38   9  30 SW10G22   30.12F WCI  31
EAGLE RIVER    SUNNY     38   5  25 SW10      30.10S WCI  31
LAND O LAKES   SUNNY     40   4  22 S5        30.10F
PHILLIPS       SUNNY     38  10  30 SW9G20    30.11F WCI  32
TOMAHAWK       SUNNY     38  12  34 CALM      30.14F
MEDFORD        SUNNY     37  14  37 S9        30.14F WCI  31
MERRILL        SUNNY     38  12  34 W7G18     30.15F WCI  33
$$

WIZ029-030-035-036-043>047-282300-
CENTRAL WISCONSIN

CITY           SKY/WX    TMP DP  RH WIND       PRES   REMARKS
WAUSAU         SUNNY     39  10  30 SW10      30.14F WCI  32
MOSINEE        SUNNY     37  10  32 S10       30.17F WCI  30
MARSHFIELD     SUNNY     42   8  24 S15       30.15F
STEVENS POINT  SUNNY     38   6  25 S6        30.18F WCI  34
WAUPACA        SUNNY     43   3  18 SW6       30.20F
WAUTOMA        NOT AVBL
WISC RAPIDS    SUNNY     41   5  22 SW9       30.19F
CAMP DOUGLAS   NOT AVBL
$$

WIZ011>013-019>022-031-037>040-048>050-282300-
NORTHEAST WISCONSIN

CITY           SKY/WX    TMP DP  RH WIND       PRES   REMARKS
ANTIGO         SUNNY     36  14  40 SW10      30.15F WCI  28
SHAWANO        SUNNY     41  11  29 S8        30.20F
OCONTO         SUNNY     39  12  33 SW13      30.22S WCI  31
STURGEON BAY   SUNNY     32  21  64 S13       30.25F WCI  22
GREEN BAY      SUNNY     38  18  44 S6        30.22F WCI  33
MANITOWOC      NOT AVBL
APPLETON       SUNNY     37  10  32 S7        30.22F WCI  32
CLINTONVILLE   SUNNY     41   9  26 SW7       30.20F
OSHKOSH        SUNNY     39  11  31 S8        30.22F WCI  33
$$

WIZ032>034-041-042-053>061-282300-
SOUTHWEST WISCONSIN

CITY           SKY/WX    TMP DP  RH WIND       PRES   REMARKS
LA CROSSE      SUNNY     42  10  27 S16       30.21F
SPARTA         SUNNY     40   9  27 S10       30.21F WCI  34
VIROQUA        SUNNY     38  14  38 SW12      30.20F WCI  30
BOSCOBEL       SUNNY     40  14  34 VRB3      30.23F
PRAIRIE DU CHI SUNNY     39  10  30 SE10      30.22F WCI  33
PLATTEVILLE    SUNNY     40  14  35 SE9       30.23F WCI  34
$$

WIZ056-057-062-063-064-067-068-282300-
SOUTH CENTRAL WISCONSIN

CITY           SKY/WX    TMP DP  RH WIND       PRES   REMARKS
REEDSBURG      SUNNY     39  12  33 SW12G17   30.22F WCI  32
BARABOO/DELLS  SUNNY     39  10  31 SW9       30.21F WCI  32
LONE ROCK      NOT AVBL
MINERAL POINT  SUNNY     37  14  38 E3        30.23F
MADISON        SUNNY     37   9  31 S9        30.24F WCI  30
MIDDLETON      SUNNY     40   9  27 S10       30.25F WCI  33
WATERTOWN      SUNNY     38  11  31 S7        30.24F WCI  33
MONROE         SUNNY     37  14  38 SW7       30.24F WCI  32
JANESVILLE     SUNNY     39   7  26 SW6       30.25F WCI  35
$$

WIZ051-052-058>065-066-070>072-282300-
SOUTHEAST WISCONSIN

CITY           SKY/WX    TMP DP  RH WIND       PRES   REMARKS
MILWAUKEE      MOSUNNY   33  11  39 SE15      30.27F WCI  23
WAUKESHA       SUNNY     37  10  32 SW9       30.25F WCI  31
MILWAUKEE/TIMM NOT AVBL
RACINE         SUNNY     31  12  45 S13       30.30F WCI  21
BURLINGTON     SUNNY     38  11  33 CALM      30.26F
KENOSHA        SUNNY     33  13  43 SE13      30.28F WCI  24
FOND DU LAC    SUNNY     39  11  31 S9        30.23F WCI  33
SHEBOYGAN      SUNNY     34  21  59 S13       30.25F WCI  25
WEST BEND      SUNNY     37   7  28 W5        30.24F WCI  34
JUNEAU         SUNNY     38  10  31 SW12      30.24F WCI  30
$$

LSZ147-162-282300-
LAKE SUPERIOR

STATION/POSITION TIME  TEMP    WIND        PRES    WAVE
                       AIR SEA DIR/SP/G            HT/PER
                 (UTC) (F)     (DEG/KT/KT) (MB)    (FT/S)
DEVILS ISLAND    2100   31      80/  6/  7 1020.3F
PORT WING        2140   39      10/  3/  7 1018.3F
SAXON HARBOR     2100   37     130/  2/ 11 1019.0F
$$

LMZ867-665-643>646-282300-
LAKE MICHIGAN

STATION/POSITION TIME  TEMP    WIND        PRES    WAVE
                       AIR SEA DIR/SP/G            HT/PER
                 (UTC) (F)     (DEG/KT/KT) (MB)    (FT/S)
NORTHPORT PIER   2100   30     150/ 11/ 16 1024.0F
KEWAUNEE LAKESHO 2100   30     170/ 16/ 17 1023.7F
SHEBOYGAN LAKESH 2100   29     150/ 16/ 17 1026.4F
PORT WASHINGTON  2100   31     160/ 12/ 14 1026.1F
MILWAUKEE LAKESH 2100   29     150/ 14/ 16   N/A
KENOSHA   LAKESH 2100   30     140/ 10/ 11 1026.4S
$$

TC  - TEMPERATURE IN CELSIUS
VSB - VISIBILITY IN STATUTE MILES
WCI - WIND CHILL INDEX
HX  - HEAT INDEX




USA.gov is the U.S. government's official web portal to all federal, state and local government web resources and services.